DW7447 Weather Reports


time (UTC)temp
F
wind
direction
speed
knots
gust
knots
rain 1hr
in
rain 24hr
in
rain mn
in
humidity
%
barometer
mb
20260901131800 65 228 10.4 22.6 0.00 0.02 0.00 69 1015.2
20260901131250 65 207 12.2 22.6 0.00 0.02 0.00 69 1015.2
20260901130733 65 235 13.9 24.3 0.00 0.02 0.00 71 1015.3
20260901130233 64 262 13.9 24.3 0.00 0.02 0.00 71 1015.2
20260901125721 65 196 7.8 18.2 0.00 0.02 0.00 71 1015.3
20260901124708 65 237 7.8 17.4 0.00 0.02 0.00 71 1015.6
20260901124205 64 230 6.1 20.0 0.00 0.02 0.00 71 1015.6
20260901123638 64 245 9.6 20.0 0.00 0.02 0.00 71 1015.7
20260901123134 64 282 9.6 15.6 0.00 0.02 0.00 71 1015.7
20260901122635 64 207 7.8 15.6 0.00 0.02 0.00 73 1015.7
20260901121607 63 251 13.9 20.0 0.00 0.02 0.00 73 1015.8
20260901121106 63 182 5.2 15.6 0.00 0.02 0.00 73 1015.6
20260901120104 63 186 8.7 14.8 0.00 0.02 0.00 73 1015.7
20260901115031 63 197 9.6 20.9 0.00 0.02 0.00 74 1015.7
20260901114532 63 237 7.8 20.9 0.00 0.02 0.00 73 1015.6
20260901114035 63 248 11.3 17.4 0.00 0.02 0.00 73 1015.6
20260901113532 63 255 7.0 19.1 0.00 0.02 0.00 73 1015.6
20260901113038 63 219 9.6 19.1 0.00 0.02 0.00 73 1015.6
20260901112033 63 220 7.8 21.7 0.00 0.02 0.00 72 1015.6
20260901111033 63 231 7.0 16.5 0.00 0.02 0.00 72 1015.6
20260901110533 63 217 8.7 18.2 0.00 0.02 0.00 72 1015.7
20260901110033 64 241 10.4 18.2 0.00 0.02 0.00 71 1015.6
20260901105533 64 200 8.7 17.4 0.00 0.02 0.00 72 1015.6
20260901104532 63 217 7.0 17.4 0.00 0.02 0.00 73 1015.6
20260901103532 63 233 8.7 18.2 0.00 0.02 0.00 73 1015.6
20260901103035 63 245 11.3 18.2 0.00 0.02 0.00 73 1015.6
20260901102534 63 233 10.4 18.2 0.00 0.02 0.00 75 1015.6
20260901101034 62 213 12.2 20.9 0.00 0.02 0.00 75 1015.7
20260901100031 62 233 10.4 22.6 0.00 0.02 0.00 75 1015.8
20260901094534 63 230 13.0 20.0 0.00 0.02 0.00 73 1015.8
20260901094034 63 217 13.0 20.0 0.00 0.02 0.00 73 1015.7
20260901093533 63 265 9.6 19.1 0.00 0.02 0.00 74 1015.7
20260901093035 62 251 10.4 16.5 0.00 0.02 0.00 75 1015.7
20260901092034 62 202 7.0 20.9 0.00 0.02 0.00 77 1015.8
20260901091033 60 212 13.0 20.9 0.00 0.02 0.00 78 1015.8
20260901090533 60 199 11.3 20.0 0.00 0.02 0.00 79 1015.8
20260901085032 60 216 9.6 17.4 0.00 0.02 0.00 80 1016.0
20260901084534 59 223 11.3 21.7 0.00 0.02 0.00 80 1016.0
20260901084033 59 243 6.1 21.7 0.00 0.02 0.00 80 1015.8
20260901083533 59 189 7.8 15.6 0.00 0.02 0.00 81 1015.8
20260901083035 58 227 8.7 17.4 0.00 0.02 0.00 81 1015.7
20260901082032 58 189 12.2 19.1 0.00 0.02 0.00 81 1015.8
20260901081533 58 303 6.1 17.4 0.00 0.02 0.00 82 1015.8
20260901081033 58 282 7.0 17.4 0.00 0.02 0.00 83 1015.8
20260901080534 57 238 9.6 16.5 0.00 0.02 0.00 83 1015.7
20260901080031 57 238 7.0 15.6 0.00 0.02 0.00 83 1015.8
20260901075533 57 203 8.7 15.6 0.00 0.02 0.00 83 1015.8
20260901075034 57 227 8.7 15.6 0.00 0.02 0.00 84 1015.7
20260901074533 57 180 9.6 15.6 0.00 0.02 0.00 84 1015.8
20260901074033 57 216 7.8 14.8 0.00 0.02 0.00 84 1015.7
20260901073533 56 233 6.1 12.2 0.00 0.02 0.00 84 1015.7
20260901071531 56 202 7.8 13.9 0.00 0.02 0.00 85 1015.8
20260901070531 55 220 7.0 14.8 0.00 0.02 0.00 86 1015.8
20260901070034 55 230 7.0 13.9 0.00 0.02 0.00 86 1015.7
20260901065534 55 255 7.8 14.8 0.00 0.02 0.00 86 1015.6
20260901064533 55 224 8.7 14.8 0.00 0.02 0.00 86 1015.7
20260901064032 55 197 9.6 13.9 0.00 0.02 0.00 86 1015.7
20260901063033 55 238 5.2 10.4 0.00 0.02 0.00 87 1015.8
20260901062035 54 237 6.1 12.2 0.00 0.02 0.00 87 1015.9
20260901061532 54 210 8.7 13.0 0.00 0.02 0.00 87 1015.7
20260901061035 54 213 7.8 13.0 0.00 0.02 0.00 87 1015.7
20260901060013 54 254 6.1 12.2 0.00 0.02 0.00 87 1015.9
20260901055504 53 230 7.0 12.2 0.00 0.02 0.00 87 1015.8
20260901055004 53 237 4.3 7.8 0.00 0.02 0.00 87 1015.8
20260901054504 53 233 3.5 7.0 0.00 0.02 0.00 87 1015.8
20260901054001 53 264 2.6 9.6 0.00 0.02 0.00 87 1015.8
20260901053501 53 233 5.2 9.6 0.00 0.02 0.00 87 1015.7
20260901052943 53 257 5.2 11.3 0.00 0.02 0.00 87 1015.8
20260901052442 53 204 6.1 12.2 0.00 0.02 0.00 87 1015.7
20260901051432 53 240 5.2 11.3 0.00 0.02 0.00 87 1015.6
20260901050444 53 207 4.3 11.3 0.00 0.02 0.00 87 1015.6
20260901045931 53 261 3.5 11.3 0.00 0.02 0.00 88 1015.7
20260901045434 52 210 3.5 11.3 0.00 0.02 0.00 88 1015.7
20260901044933 52 223 2.6 7.0 0.00 0.02 0.00 89 1015.7
20260901044434 52 231 3.5 10.4 0.00 0.02 0.00 89 1015.8
20260901043433 51 220 5.2 10.4 0.00 0.02 0.00 90 1015.8
20260901042932 51 241 2.6 10.4 0.00 0.02 0.00 92 1015.7
20260901042432 51 220 6.1 11.3 0.00 0.02 0.00 92 1015.6
20260901041937 50 213 5.2 11.3 0.00 0.02 0.00 92 1015.7
20260901041415 49 259 2.6 7.0 0.00 0.02 0.00 91 1015.7
20260901040912 49 250 3.5 7.0 0.00 0.02 0.00 91 1015.7
20260901040412 49 295 1.7 9.6 0.00 0.02 0.00 91 1015.7
20260901035850 49 275 1.7 9.6 0.00 0.02 0.00 91 1015.7
20260901035346 49 247 1.7 7.0 0.00 0.02 0.00 91 1015.8
20260901034841 49 271 1.7 5.2 0.00 0.02 0.00 90 1015.9
20260901034337 49 271 2.6 5.2 0.00 0.02 0.00 90 1015.8
20260901033830 49 257 2.6 5.2 0.00 0.02 0.00 90 1015.9
20260901032832 49 274 2.6 6.1 0.00 0.02 0.00 90 1015.8
20260901032307 49 279 3.5 7.0 0.00 0.02 0.00 90 1015.7
20260901031809 48 224 3.5 7.0 0.00 0.02 0.00 90 1015.8
20260901031304 48 269 2.6 6.1 0.00 0.02 0.00 90 1015.9
20260901030804 49 265 2.6 5.2 0.00 0.02 0.00 89 1015.9
20260901030303 49 262 2.6 5.2 0.00 0.02 0.00 88 1015.9
20260901025804 49 251 2.6 6.1 0.00 0.02 0.00 88 1015.9
20260901024802 49 250 1.7 7.8 0.00 0.02 0.00 88 1015.8
20260901024304 49 262 2.6 7.8 0.00 0.02 0.00 87 1015.9
20260901023258 50 271 2.6 6.1 0.00 0.02 0.00 86 1015.9
20260901022755 50 244 3.5 7.0 0.00 0.02 0.00 85 1015.9
20260901022239 51 266 3.5 6.1 0.00 0.02 0.00 85 1016.0
20260901021732 51 261 2.6 7.0 0.00 0.02 0.00 85 1016.0
20260901021234 51 282 2.6 9.6 0.00 0.02 0.00 85 1016.1
20260901020733 52 200 4.3 9.6 0.00 0.02 0.00 85 1016.1
20260901020232 52 248 5.2 9.6 0.00 0.02 0.00 85 1016.0
20260901015731 52 195 5.2 9.6 0.00 0.02 0.00 85 1016.0
20260901015232 52 221 5.2 11.3 0.00 0.02 0.00 85 1015.9
20260901014733 51 233 6.1 11.3 0.00 0.02 0.00 85 1015.9
20260901013733 51 207 6.1 9.6 0.00 0.02 0.00 86 1015.9
20260901013233 51 257 4.3 7.0 0.00 0.02 0.00 85 1016.0
20260901012730 51 251 2.6 7.0 0.00 0.02 0.00 84 1015.9
20260901011733 52 243 4.3 11.3 0.00 0.02 0.00 84 1016.0
20260901011231 52 279 6.1 11.3 0.00 0.02 0.00 84 1015.9
20260901010731 52 237 3.5 11.3 0.00 0.02 0.00 84 1015.9
20260901010229 52 226 7.8 11.3 0.00 0.02 0.00 84 1015.8
20260901005734 52 217 7.8 11.3 0.00 0.02 0.00 84 1015.8
20260901005231 52 252 5.2 11.3 0.00 0.02 0.00 84 1015.7
20260901004731 52 221 4.3 11.3 0.00 0.02 0.00 84 1015.8
20260901004231 52 251 5.2 12.2 0.00 0.02 0.00 84 1015.7
20260901003230 52 259 2.6 10.4 0.00 0.02 0.00 84 1015.7
20260901002730 52 250 3.5 10.4 0.00 0.02 0.00 84 1015.8
20260901002233 52 254 5.2 12.2 0.00 0.02 0.00 84 1015.7
20260901001731 52 213 7.0 12.2 0.00 0.02 0.00 84 1015.7
20260901001230 52 226 7.0 11.3 0.00 0.02 0.00 84 1015.7
20260901000229 52 210 6.1 10.4 0.00 0.02 0.00 83 1015.7
20260831235733 52 240 5.2 9.6 0.00 0.02 0.00 83 1015.7
20260831235232 52 274 3.5 9.6 0.00 0.02 0.00 83 1015.7
20260831234736 52 230 5.2 9.6 0.00 0.02 0.00 83 1015.6
20260831234231 52 209 4.3 9.6 0.00 0.02 0.00 84 1015.7
20260831233732 52 244 4.3 11.3 0.00 0.02 0.00 84 1015.6
20260831233233 52 278 6.1 11.3 0.00 0.02 0.00 84 1015.6
20260831232730 52 235 4.3 11.3 0.00 0.02 0.00 84 1015.6
20260831232232 52 243 5.2 10.4 0.00 0.02 0.00 84 1015.5
20260831231232 52 237 5.2 9.6 0.00 0.02 0.00 84 1015.6
20260831230733 52 241 6.1 9.6 0.00 0.02 0.00 84 1015.5
20260831230238 52 259 5.2 10.4 0.00 0.02 0.00 84 1015.5
20260831225720 52 237 6.1 10.4 0.00 0.02 0.02 84 1015.5
20260831225219 52 235 2.6 9.6 0.00 0.02 0.02 84 1015.6
20260831224706 52 220 3.5 10.4 0.00 0.02 0.02 83 1015.5
20260831223704 52 261 2.6 7.8 0.00 0.02 0.02 82 1015.5
20260831223141 53 265 3.5 9.6 0.00 0.02 0.02 82 1015.5
20260831222635 53 266 4.3 11.3 0.00 0.02 0.02 82 1015.4
20260831222132 53 248 4.3 11.3 0.00 0.02 0.02 82 1015.5
20260831221632 53 240 4.3 11.3 0.00 0.02 0.02 82 1015.4
20260831221132 53 223 3.5 9.6 0.00 0.02 0.02 81 1015.3
20260831220633 53 238 4.3 9.6 0.00 0.02 0.02 81 1015.3
20260831220134 53 289 4.3 7.8 0.00 0.02 0.02 81 1015.2
20260831215632 53 243 5.2 9.6 0.00 0.02 0.02 81 1015.2
20260831215133 53 195 3.5 9.6 0.00 0.02 0.02 80 1015.2
20260831214632 53 241 4.3 9.6 0.00 0.02 0.02 80 1015.2
20260831214133 53 250 4.3 9.6 0.00 0.02 0.02 80 1015.1
20260831213632 53 250 4.3 9.6 0.00 0.02 0.02 80 1015.2
20260831212632 53 257 6.1 10.4 0.00 0.02 0.02 80 1015.2
20260831212133 53 237 4.3 9.6 0.00 0.02 0.02 79 1015.2
20260831211633 53 251 4.3 9.6 0.00 0.02 0.02 79 1015.2
20260831210631 54 261 1.7 7.8 0.00 0.02 0.02 80 1015.2
20260831210131 54 261 3.5 7.8 0.00 0.02 0.02 80 1015.1
20260831205633 54 248 1.7 7.0 0.00 0.02 0.02 80 1015.0
20260831205132 54 224 2.6 7.0 0.00 0.02 0.02 79 1014.9
20260831204631 54 230 2.6 7.0 0.00 0.02 0.02 79 1014.8
20260831204132 54 212 3.5 7.0 0.00 0.02 0.02 79 1014.8
20260831203630 54 224 2.6 7.0 0.00 0.02 0.02 80 1014.8
20260831203132 55 262 4.3 7.0 0.00 0.02 0.02 80 1014.7
20260831201632 55 193 3.5 7.0 0.00 0.06 0.02 79 1014.8
20260831200631 55 243 3.5 7.0 0.00 0.08 0.02 80 1014.6
20260831200132 55 255 3.5 7.0 0.00 0.09 0.02 80 1014.6
20260831195133 56 221 3.5 6.1 0.00 0.12 0.02 79 1014.3
20260831194632 56 257 2.6 7.0 0.00 0.13 0.02 79 1014.2
20260831194132 56 237 3.5 7.0 0.00 0.13 0.02 77 1014.2
20260831193631 56 233 3.5 6.1 0.00 0.13 0.02 77 1014.0
20260831192631 57 262 1.7 9.6 0.00 0.13 0.02 76 1013.9
20260831192130 57 292 3.5 10.4 0.00 0.13 0.02 76 1013.8
20260831191626 57 240 4.3 10.4 0.00 0.13 0.02 75 1013.9
20260831191118 57 234 5.2 12.2 0.00 0.13 0.02 75 1013.8
20260831190106 57 238 8.7 14.8 0.00 0.13 0.02 76 1013.6
20260831185543 58 224 4.3 13.0 0.00 0.13 0.02 76 1013.4
20260831185034 58 237 5.2 7.8 0.00 0.13 0.02 77 1013.3
20260831184534 58 259 4.3 7.8 0.00 0.13 0.02 78 1013.2
20260831184032 58 259 3.5 9.6 0.00 0.13 0.02 77 1013.1
20260831183531 59 238 3.5 10.4 0.00 0.13 0.02 77 1013.1
20260831182533 59 271 4.3 12.2 0.00 0.14 0.02 76 1012.8
20260831182031 60 251 4.3 10.4 0.00 0.14 0.02 74 1012.8
20260831181533 60 259 5.2 13.9 0.00 0.14 0.02 74 1012.7
20260831181030 61 244 5.2 20.0 0.00 0.14 0.02 73 1012.6
20260831180531 61 269 9.6 20.0 0.00 0.14 0.02 72 1012.5
20260831175533 62 293 7.8 17.4 0.00 0.14 0.02 70 1012.4
20260831175030 62 281 9.6 16.5 0.00 0.14 0.02 70 1012.4
20260831174528 63 265 10.4 16.5 0.00 0.14 0.02 70 1012.2
20260831174030 63 278 9.6 15.6 0.00 0.14 0.02 70 1012.1
20260831173529 63 278 9.6 15.6 0.00 0.14 0.02 70 1012.1
20260831172020 63 255 4.3 13.9 0.00 0.14 0.02 71 1011.7
20260831171003 63 243 9.6 15.6 0.00 0.14 0.02 70 1011.7
20260831170504 63 257 10.4 15.6 0.00 0.14 0.02 70 1011.6
20260831165954 64 290 10.4 15.6 0.00 0.14 0.02 70 1011.7
20260831164930 64 224 7.0 15.6 0.00 0.14 0.02 73 1011.4
20260831164435 64 268 9.6 18.2 0.00 0.14 0.02 77 1011.3
20260831163433 64 219 9.6 14.8 0.02 0.15 0.02 77 1011.1
20260831162931 64 259 6.1 12.2 0.02 0.15 0.02 78 1011.1
20260831162431 64 248 4.3 11.3 0.02 0.17 0.02 81 1011.1
20260831161933 64 268 7.0 13.0 0.02 0.24 0.02 81 1011.0
20260831161435 63 293 7.0 13.0 0.02 0.25 0.02 81 1011.0
20260831160931 63 255 5.2 10.4 0.02 0.26 0.02 85 1010.9
20260831154929 63 312 4.3 13.9 0.02 0.26 0.02 82 1010.7
20260831154428 64 234 7.0 14.8 0.02 0.26 0.02 80 1010.7
20260831153930 65 214 7.0 14.8 0.02 0.26 0.02 76 1010.7
20260831153429 66 244 5.2 10.4 0.00 0.24 0.00 74 1010.5
20260831152906 66 227 1.7 10.4 0.00 0.24 0.00 72 1010.3
20260831152403 66 275 3.5 10.4 0.00 0.24 0.00 72 1010.3
20260831151406 66 274 7.0 12.2 0.00 0.24 0.00 71 1010.3
20260831150903 66 238 5.2 14.8 0.00 0.24 0.00 71 1010.3
20260831150405 66 276 7.0 14.8 0.00 0.24 0.00 72 1010.1
20260831145332 66 224 5.2 13.0 0.00 0.24 0.00 72 1010.0
20260831144332 67 221 8.7 13.9 0.00 0.24 0.00 75 1009.8
20260831143832 67 241 7.8 13.9 0.00 0.24 0.00 75 1009.9
20260831143330 66 231 6.1 13.9 0.00 0.24 0.00 77 1009.7
20260831142833 65 220 5.2 13.9 0.00 0.24 0.00 77 1009.7
20260831142333 65 206 9.6 13.9 0.00 0.24 0.00 79 1009.7
20260831141832 65 212 8.7 13.0 0.00 0.24 0.00 79 1009.7
20260831140833 66 244 6.1 13.9 0.00 0.24 0.00 77 1009.7
20260831140332 66 248 5.2 13.0 0.00 0.24 0.00 75 1009.5
20260831135831 66 244 8.7 13.0 0.00 0.24 0.00 78 1009.5
20260831135332 64 285 6.1 13.0 0.00 0.24 0.00 76 1009.5
20260831133833 66 288 9.6 19.1 0.00 0.24 0.00 72 1009.2
20260831132830 66 289 5.2 15.6 0.00 0.24 0.00 72 1008.9
20260831132333 66 278 7.8 15.6 0.00 0.24 0.00 72 1008.9